THOR ABLESTAR DEB, 653

Orbit data source: Space-Track

THOR ABLESTAR DEB, 653 is space debris in LEO originally from a launch on Thu, 29 Jun 1961 UTC launched from the Air Force Eastern Test Range (AFETR). Debris objects in space refer to the collection of defunct objects orbiting the Earth. Examples of debris include non-operational satellites, rocket bodies, and fragments generated from explosions, collisions, or faulty payload assembly.

Loading next visibility...
Identifier
653, 1961-015HE
Orbit
LEO
Country
Flag of USUS
Related business
Manufacturer
Unknown
Mission
Spacecraft
Bus & Motor
Unknown
Mass
Unknown
Launch date (UTC)
1961-06-29 (64 years ago)
Launch vehicle
Unknown
Launch site
Air Force Eastern Test Range (AFETR)
Object type
Payload
Rocket body
Debris
Shape & HBR
Unknown
Radar Cross Section
Small (<0.1 m²)

Expand to show TLE details & history
Last TLE update: 1 day ago

TLE from 1 day ago
0 THOR ABLESTAR DEB
1 00653U 61015HE  25257.85616124  .00000530  00000-0  62239-3 0  9994
2 00653  67.4490  81.1312 0161098 198.9167 271.5423 13.69861320180167
Epoch: 2025-09-14T20:32Z
TLE epoch observation values (Epoch: 2025-09-14T20:32:52.331Z)
Latitude
61.18503°
Longitude
-89.83074°
Altitude
1,008.45 km
Speed
7.354 km/s
True Right ascension
14h 09m 49s
True Declination
61° 02' 40"
Sunlit
Object was in daylight at epoch
Visualization orbit readout
Latitude
Unknown
Longitude
Unknown
Altitude
Unknown
Speed
Unknown
Apparent Right ascension
Unknown
Apparent Declination
Unknown
Sunlit
N/A
Visualization observer readout
Local Sidereal Time
14:41:38
Azimuth
Unknown
Elevation
Unknown
Doppler factor
Unknown
Orbital elements
Apogee altitude
1,117.24 km
Perigee altitude
879.571 km
Semi-major axis
7,376.542 km
Eccentricity
0.01611
Inclination
67.449°
RAAN
81.1312°
Arg. of periapsis
198.9167°
True anomaly
269.69624°
Mean anomaly
271.5423°
Eccentric anomaly
270.61933°
Mean motion
3.42581 °/min
Orbital period
105.08 mins
BSTAR
0.00062239
Loading maneuver chart data...
Computing Atmospheric mass density...

Documentation

Showing up to 5 results
|